Home   Weather   Thule Air Base   Past weeks

Flag for Greenland Past Weather in Thule Air Base, Greenland — Yesterday and Last 2 Weeks

Now
-6 °F

Sunny.


Feels Like: -19 °F
Forecast: -10 / -7 °F
Wind: 6 mph from East

Location: Thule A. B.

Current Time: Dec 4, 2016 at 8:34:34 am

Latest Report: Dec 4, 2016 at 7:58 am


Visibility: N/A

Pressure: 29.94 "Hg

Humidity: 70%

Dew Point: -13 °F

Location of Thule Air BaseLocation

Past Weather in Thule Air Base — Graph

°F

Thule Air Base Temperature Yesterday

Maximum temperature yesterday: 3 °F (at 12:58 am)
Minimum temperature yesterday: -8 °F (at 5:58 pm)
Average temperature yesterday: -4 °F

High & Low Weather Summary for the Past Weeks

 TemperatureHumidityPressure
High27 °F (Nov 20, 11:58 pm)93% (Nov 20, 7:58 am)30.22 "Hg (Nov 20, 7:58 am)
Low-11 °F (Nov 26, 8:58 pm)55% (Dec 2, 4:58 am)29.59 "Hg (Nov 21, 9:58 pm)
Average4 °F76%29.97 "Hg
* Reported Nov 19 6:58 am — Dec 4 6:58 am, Thule Air Base, Weather by CustomWeather, © 2016

Note: Actual official high and low records may vary slightly from our data, if they occured in-between our weather recording intervals... More about our weather records

Advertising

Thule Air Base Weather History for the Previous 24 Hours

Scroll right to see more
 ConditionsComfort  
Time TempWeatherWind HumidityBarometerVisibility
6:58 am
Sun, Dec 4
-6 °FClear.3 mph70%29.95 "HgN/A
5:58 am-4 °FClear.9 mph71%29.93 "HgN/A
4:58 am-4 °FClear.10 mph71%29.93 "HgN/A
3:58 am-4 °FClear.9 mph71%29.92 "HgN/A
2:58 am-4 °FClear.8 mph77%29.91 "HgN/A
1:58 am-6 °FSunny.6 mph77%29.90 "HgN/A
12:58 am0 °FClear.7 mph71%29.89 "HgN/A
11:58 pm
Sat, Dec 3
-4 °FClear.9 mph77%29.89 "HgN/A
10:58 pm-3 °FClear.5 mph74%29.89 "HgN/A
9:58 pm-6 °FClear.7 mph77%29.90 "HgN/A
8:58 pm-6 °FClear.12 mph77%29.89 "HgN/A
7:58 pm-4 °FSunny.7 mph77%29.90 "HgN/A
6:58 pm-7 °FSunny.10 mph78%29.90 "HgN/A
5:58 pm-8 °FSunny.9 mph77%29.90 "HgN/A
4:58 pm-4 °FSunny.5 mph77%29.90 "HgN/A
3:58 pm-4 °FSunny.13 mph77%29.88 "HgN/A
2:58 pm-6 °FSunny.9 mph77%29.89 "HgN/A
1:58 pm-2 °FSunny.10 mph77%29.89 "HgN/A
12:58 pm-6 °FSunny.9 mph77%29.90 "HgN/A
11:58 am-4 °FSunny.8 mph77%29.90 "HgN/A
10:58 am-6 °FSunny.8 mph77%29.90 "HgN/A
9:58 am-4 °FSunny.9 mph77%29.91 "HgN/A
8:58 am-4 °FSunny.9 mph77%29.91 "HgN/A
Weather by CustomWeather, © 2016

See weather overviewHow to use our weather pages